Location: Riverside Cemetery
(38.3047°N, 99.7773°W)
Time: 17:48:15
(UTC+00:00)

Cosmos 1092 Rocket - Pass Details

Date: 19 September 2020
Orbit: 954 x 995 km, 82.9° (Epoch: 22 October)

Event Time Altitude Azimuth Distance (km) Brightness Sun altitude
Rises 02:50:02 0° 355° (N) 3,642 7.4 -25.3°
Reaches altitude 10° 02:52:33 10° 358° (N) 2,695 6.6 -25.8°
Maximum altitude 02:58:42 71° 82° (E) 1,017 3.8 -26.9°
Enters shadow 02:58:56 70° 99° (E) 1,022 3.8 -26.9°
